Location: Biltmore Gardens
(41.6070°N, 83.4666°W)
Time: 15:22:43
(UTC+00:00)

Cosmos 1151 Rocket - Pass Details

Date: 14 July 2020
Orbit: 591 x 617 km, 82.5° (Epoch: 12 August)

Event Time Altitude Azimuth Distance (km) Brightness Sun altitude
Rises 04:27:58 0° 347° (NNW) 2,859 7.9 -24.6°
Reaches altitude 10° 04:30:14 10° 342° (NNW) 1,947 6.7 -24.8°
Enters shadow 04:34:17 52° 274° (W) 743 3.5 -25.0°
